Chester, CT

5:46 PM EDT on September 25, 2017 (GMT -0400)
Chester

Weather History for KSNC - October, 2011

Change the Weather History Date:

Tuesday, October 18, 2011

  Actual Average (KHVN) Record (KHVN)
Temperature  
Mean Temperature 58 °F -  
Max Temperature 66 °F 58 °F 77 °F (2016)
Min Temperature 51 °F 43 °F 30 °F (1978)
Degree Days  
Heating Degree Days 6    
Growing Degree Days 8 (Base 50)    
Moisture  
Dew Point 38 °F    
Average Humidity 48    
Maximum Humidity 77    
Minimum Humidity 30    
Precipitation  
Precipitation 0.00 in - - ()
Sea Level Pressure  
Sea Level Pressure 29.85 in    
Wind  
Wind Speed 5 mph (WSW)    
Max Wind Speed 10 mph    
Max Gust Speed -    
Visibility 10 miles    
Events      
Averages and records for this station are not official NWS values.
T = Trace of Precipitation, MM = Missing Value Source: NWS Daily Summary

Daily Weather History Graph

Daily Weather History Graph

Search for Another Location

Airport or City:

Trip Planner

Search our weather history database for the weather conditions in past years. The results will help you decide how hot, cold, wet, or windy it might be!

Date:

Astronomy

Oct. 18, 2011 Rise Set
Actual Time 7:04 AM EDT 6:04 PM EDT
Civil Twilight 6:36 AM EDT 6:32 PM EDT
Nautical Twilight 6:04 AM EDT 7:04 PM EDT
Astronomical Twilight 5:32 AM EDT 7:36 PM EDT
Moon 10:40 PM EDT (10/18) 12:56 PM EDT (10/18)
Length of Visible Light 11h 55m
Length of Day
11h 00m
Waning Gibbous, 65% of the Moon is Illuminated
Oct 18
Waning Gibbous
Oct 19
Last Quarter
Oct 26
New
Nov 2
First Quarter
Nov 10
Full

Hourly Weather History & Observations

Time (EDT) Temp. Dew Point Humidity Pressure Visibility Wind Dir Wind Speed Gust Speed Precip Events Conditions
12:15 AM 57.2 °F 42.8 °F 59% 29.78 in 10.0 mi WSW 4.6 mph - N/A   Clear
12:35 AM 55.4 °F 42.8 °F 63% 29.78 in 10.0 mi WSW 4.6 mph - N/A   Clear
12:55 AM 55.4 °F 42.8 °F 63% 29.78 in 10.0 mi West 3.5 mph - N/A   Clear
1:15 AM 55.4 °F 42.8 °F 63% 29.78 in 10.0 mi WSW 5.8 mph - N/A   Clear
1:35 AM 55.4 °F 41.0 °F 58% 29.79 in 10.0 mi WSW 8.1 mph - N/A   Clear
1:55 AM 55.4 °F 39.2 °F 54% 29.78 in 10.0 mi WSW 4.6 mph - N/A   Clear
2:15 AM 55.4 °F 39.2 °F 54% 29.78 in 10.0 mi West 6.9 mph - N/A   Clear
2:35 AM 55.4 °F 39.2 °F 54% 29.78 in 10.0 mi West 4.6 mph - N/A   Clear
2:55 AM 53.6 °F 39.2 °F 58% 29.78 in 10.0 mi West 4.6 mph - N/A   Clear
3:15 AM 53.6 °F 37.4 °F 54% 29.78 in 10.0 mi West 4.6 mph - N/A   Clear
3:35 AM 53.6 °F 37.4 °F 54% 29.78 in 10.0 mi West 4.6 mph - N/A   Clear
3:55 AM 51.8 °F 39.2 °F 62% 29.79 in 10.0 mi West 5.8 mph - N/A   Clear
4:15 AM 53.6 °F 37.4 °F 54% 29.80 in 10.0 mi West 4.6 mph - N/A   Clear
4:35 AM 53.6 °F 37.4 °F 54% 29.80 in 10.0 mi West 4.6 mph - N/A   Clear
4:55 AM 53.6 °F 37.4 °F 54% 29.80 in 10.0 mi West 5.8 mph - N/A   Clear
5:15 AM 51.8 °F 37.4 °F 58% 29.81 in 10.0 mi WSW 3.5 mph - N/A   Clear
5:35 AM 51.8 °F 37.4 °F 58% 29.81 in 10.0 mi WNW 3.5 mph - N/A   Clear
5:55 AM 51.8 °F 35.6 °F 54% 29.82 in 10.0 mi West 3.5 mph - N/A   Clear
6:15 AM 51.8 °F 35.6 °F 54% 29.83 in 10.0 mi West 4.6 mph - N/A   Clear
6:35 AM 51.8 °F 35.6 °F 54% 29.84 in 10.0 mi West 3.5 mph - N/A   Scattered Clouds
6:55 AM 51.8 °F 35.6 °F 54% 29.85 in 10.0 mi WSW 4.6 mph - N/A   Mostly Cloudy
7:15 AM 53.6 °F 35.6 °F 51% 29.85 in 10.0 mi WSW 5.8 mph - N/A   Partly Cloudy
7:35 AM 53.6 °F 35.6 °F 51% 29.86 in 10.0 mi WSW 4.6 mph - N/A   Partly Cloudy
7:55 AM 55.4 °F 37.4 °F 51% 29.86 in 10.0 mi WSW 5.8 mph - N/A   Partly Cloudy
8:15 AM 53.6 °F 37.4 °F 54% 29.87 in 10.0 mi WSW 5.8 mph - N/A   Scattered Clouds
8:35 AM 53.6 °F 37.4 °F 54% 29.87 in 10.0 mi SW 3.5 mph - N/A   Mostly Cloudy
8:55 AM 55.4 °F 37.4 °F 51% 29.88 in 10.0 mi SW 5.8 mph - N/A   Mostly Cloudy
9:15 AM 55.4 °F 35.6 °F 47% 29.89 in 10.0 mi WSW 4.6 mph - N/A   Mostly Cloudy
9:35 AM 57.2 °F 37.4 °F 48% 29.88 in 10.0 mi WSW 5.8 mph - N/A   Scattered Clouds
9:55 AM 60.8 °F 37.4 °F 42% 29.88 in 10.0 mi WSW 3.5 mph - N/A   Partly Cloudy
10:15 AM 60.8 °F 37.4 °F 42% 29.88 in 10.0 mi SW 4.6 mph - N/A   Clear
10:35 AM 60.8 °F 37.4 °F 42% 29.88 in 10.0 mi WSW 5.8 mph - N/A   Clear
10:55 AM 60.8 °F 37.4 °F 42% 29.89 in 10.0 mi West 5.8 mph - N/A   Partly Cloudy
11:15 AM 62.6 °F 37.4 °F 39% 29.89 in 10.0 mi West 8.1 mph - N/A   Partly Cloudy
11:35 AM 62.6 °F 37.4 °F 39% 29.89 in 10.0 mi SW 9.2 mph - N/A   Clear
11:55 AM 62.6 °F 37.4 °F 39% 29.89 in 10.0 mi WSW 4.6 mph - N/A   Partly Cloudy
12:15 PM 62.6 °F 35.6 °F 37% 29.88 in 10.0 mi West 4.6 mph - N/A   Clear
12:35 PM 62.6 °F 33.8 °F 34% 29.88 in 10.0 mi SW 6.9 mph - N/A   Clear
12:55 PM 64.4 °F 33.8 °F 32% 29.87 in 10.0 mi SW 8.1 mph - N/A   Clear
1:15 PM 66.2 °F 35.6 °F 32% 29.87 in 10.0 mi WSW 10.4 mph - N/A   Clear
1:35 PM 66.2 °F 33.8 °F 30% 29.86 in 10.0 mi SW 6.9 mph - N/A   Clear
1:55 PM 66.2 °F 35.6 °F 32% 29.86 in 10.0 mi SSW 8.1 mph - N/A   Clear
2:15 PM 66.2 °F 37.4 °F 35% 29.86 in 10.0 mi WSW 6.9 mph - N/A   Clear
2:35 PM 66.2 °F 37.4 °F 35% 29.86 in 10.0 mi SW 9.2 mph - N/A   Clear
2:55 PM 66.2 °F 35.6 °F 32% 29.86 in 10.0 mi SSW 8.1 mph - N/A   Clear
3:15 PM 66.2 °F 33.8 °F 30% 29.87 in 10.0 mi WSW 5.8 mph - N/A   Partly Cloudy
3:35 PM 66.2 °F 33.8 °F 30% 29.87 in 10.0 mi WSW 8.1 mph - N/A   Partly Cloudy
3:55 PM 66.2 °F 33.8 °F 30% 29.87 in 10.0 mi WSW 4.6 mph - N/A   Clear
4:15 PM 66.2 °F 33.8 °F 30% 29.87 in 10.0 mi WSW 5.8 mph - N/A   Clear
4:35 PM 64.4 °F 35.6 °F 34% 29.88 in 10.0 mi WSW 3.5 mph - N/A   Clear
5:15 PM 62.6 °F 37.4 °F 39% 29.88 in 10.0 mi SW 3.5 mph - N/A   Partly Cloudy
5:35 PM 62.6 °F 41.0 °F 45% 29.89 in 10.0 mi SSW 3.5 mph - N/A   Clear
5:55 PM 60.8 °F 42.8 °F 52% 29.89 in 10.0 mi SSW 3.5 mph - N/A   Clear
6:15 PM 59.0 °F 42.8 °F 55% 29.89 in 10.0 mi Calm Calm - N/A   Clear
6:35 PM 57.2 °F 44.6 °F 63% 29.89 in 10.0 mi Calm Calm - N/A   Clear
6:55 PM 55.4 °F 46.4 °F 72% 29.89 in 10.0 mi Calm Calm - N/A   Clear
7:15 PM 53.6 °F 46.4 °F 77% 29.90 in 10.0 mi Calm Calm - N/A   Clear
7:35 PM 53.6 °F 44.6 °F 72% 29.90 in 10.0 mi Calm Calm - N/A   Scattered Clouds
7:55 PM 53.6 °F 44.6 °F 72% 29.91 in 10.0 mi Calm Calm - N/A   Scattered Clouds
8:15 PM 55.4 °F 46.4 °F 72% 29.90 in 10.0 mi Calm Calm - N/A   Partly Cloudy
8:35 PM 53.6 °F 46.4 °F 77% 29.91 in 10.0 mi Calm Calm - N/A   Clear
8:55 PM 53.6 °F 46.4 °F 77% 29.92 in 10.0 mi Calm Calm - N/A   Clear
9:15 PM 53.6 °F 46.4 °F 77% 29.92 in 10.0 mi Calm Calm - N/A   Clear
9:35 PM 53.6 °F 44.6 °F 72% 29.94 in 10.0 mi South 3.5 mph - N/A   Clear
9:55 PM 53.6 °F 44.6 °F 72% 29.94 in 10.0 mi South 3.5 mph - N/A   Clear
10:15 PM 53.6 °F 46.4 °F 77% 29.93 in 10.0 mi Calm Calm - N/A   Clear
10:35 PM 51.8 °F 46.4 °F 82% 29.94 in 10.0 mi Calm Calm - N/A   Clear
10:55 PM 53.6 °F 46.4 °F 77% 29.94 in 10.0 mi Calm Calm - N/A   Partly Cloudy
11:15 PM 51.8 °F 46.4 °F 82% 29.93 in 10.0 mi Calm Calm - N/A   Partly Cloudy
11:35 PM 51.8 °F 48.2 °F 88% 29.93 in 10.0 mi Calm Calm - N/A   Clear
11:55 PM 51.8 °F 48.2 °F 88% 29.93 in 10.0 mi Calm Calm - N/A   Partly Cloudy